Location: *
(37.4810°N, 88.9447°W)
Time: 04:06:27
(UTC+00:00)

Daily predictions for brighter satellites

Satellite Brightness Start Highest point End
(mag) Time Altitude Azimuth Time Altitude Azimuth Time Altitude Azimuth
Cosmos 2228 3.1 00:01:16 10° S 00:05:33 55° E 00:09:50 10° NNE
Cosmos 1953 2.3 00:04:15 10° S 00:08:18 87° E 00:12:23 10° N
Cosmos 1271 Rocket 3.0 00:09:54 10° N 00:13:44 46° ENE 00:17:34 10° SSE
Cosmos 2239 Rocket 4.5 00:08:02 10° N 00:14:07 61° E 00:20:10 10° SSE
COSMO-SKYMED 1 2.9 00:11:13 10° N 00:15:33 70° WNW 00:19:51 10° SSW
Ariane Rocket 3.8 00:13:28 10° SE 00:17:49 30° ENE 00:22:12 10° N
Cosmos 921 Rocket 3.2 00:13:59 10° S 00:18:22 53° ESE 00:22:45 10° NNE
Cosmos 1821 Rocket 3.9 00:13:21 10° N 00:19:29 77° E 00:25:37 10° S
Nadezhda 3 Rocket 4.2 00:14:05 10° S 00:20:18 79° W 00:26:40 10° N
ATLAS 5 CENTAUR R/B 2.9 00:18:26 10° WSW 00:22:22 39° NW 00:26:41 10° NNE
Cosmos 968 Rocket 3.5 00:17:09 10° N 00:22:23 62° ENE 00:27:35 10° SSE
CZ-3 Stage 3 2.6 00:17:36 10° WSW 00:22:42 25° S 00:24:23 15° SE
Cosmos 1703 4.3 00:20:23 10° NNE 00:23:41 25° ENE 00:25:04 20° ESE
ASTEX 1 3.5 00:22:45 10° N 00:27:43 83° W 00:32:40 10° S
Cosmos 1939 Rocket 3.4 00:24:26 10° SE 00:28:01 35° ENE 00:31:41 10° N
Cosmos 1503 Rocket 3.9 00:23:42 10° NNW 00:28:52 69° ENE 00:34:00 10° SSE
Cosmos 1992 Rocket 4.3 00:23:45 10° SSW 00:28:56 69° WNW 00:34:10 10° NNE
Cosmos 1825 Rocket 3.8 00:25:33 10° NNW 00:29:54 73° W 00:34:16 10° S
Cosmos 1953 Rocket 3.4 00:25:35 10° N 00:29:58 73° E 00:34:18 10° SSE
H-2A R/B 4.0 00:32:42 13° NE 00:32:42 13° NE 00:34:04 10° NE
NOAA 11 4.3 00:27:29 10° SE 00:32:43 50° ENE 00:37:58 10° N
Cosmos 1535 Rocket 4.4 00:27:37 10° N 00:33:48 63° E 00:39:52 10° SSE
CSL-04 Rocket 3.7 00:28:21 10° SSE 00:33:54 90° WNW 00:39:27 10° NNW
USA 116 3.9 00:32:20 10° N 00:35:24 55° WNW 00:38:35 10° SSW
Cosmos 2084 4.2 00:31:49 10° SW 00:36:17 57° NW 00:40:44 10° NNE
Atlas Centaur 2 4.0 00:31:54 10° WSW 00:36:25 22° SSW 00:40:14 10° SSE
Cosmos 1626 4.4 00:33:41 10° NNW 00:36:54 28° W 00:40:07 10° SSW
Cosmos 1934 Rocket 4.0 00:31:14 10° N 00:37:32 67° E 00:43:51 10° SSE
Cosmos 1726 1.9 00:37:24 10° S 00:41:02 77° E 00:44:42 10° N
Abrixas rocket 4.1 00:40:40 10° S 00:41:49 16° SSE 00:41:49 16° SSE
CZ-4 R/B 2.5 00:39:30 10° S 00:43:28 47° W 00:47:30 10° NNW
ADEOS Rocket 4.2 00:38:22 10° NE 00:44:51 29° E 00:50:58 10° SSE
Lacrosse 5 rocket 2.1 00:41:34 10° NNW 00:45:00 31° NE 00:45:16 30° NE
OAO 2 Rocket 3.5 00:43:30 10° WSW 00:48:45 67° S 00:50:58 34° ESE
USA 238 DEB 4.3 00:45:40 10° S 00:51:16 30° ESE 00:51:49 29° ESE
USA 238 4.3 00:45:47 10° SSE 00:51:23 30° ESE 00:51:50 29° ESE
Cosmos 1833 Rocket 4.1 00:49:12 10° N 00:52:34 19° NE 00:52:34 19° NE
EO 1 Delta rocket 3.9 00:50:54 10° S 00:55:44 77° W 01:00:21 10° NNW
COSMOS 2406 3.5 00:54:47 10° N 01:00:21 47° ENE 01:01:41 40° E
Cosmos 1328 3.7 00:57:04 10° N 01:01:04 90° SSE 01:03:37 21° S
Cosmos 1356 4.0 00:57:58 10° SSW 01:01:21 57° W 01:04:44 10° N
Cosmos 1908 3.2 01:00:35 10° S 01:04:28 82° W 01:08:24 10° N
Meteor 1-11 4.1 00:59:27 10° N 01:05:13 71° E 01:10:40 12° SSE
YAOGAN 1 4.1 01:02:09 10° SSW 01:06:07 36° W 01:10:08 10° NNW
USA 234 3.3 01:03:26 31° ENE 01:06:32 56° SE 01:12:55 10° SSW
Cosmos 2082 Rocket 3.9 01:03:08 10° N 01:05:28 16° NE 01:05:28 16° NE
BREEZE-M DEB (TANK) 4.1 00:59:21 10° WNW 01:07:01 44° SW 01:08:20 29° S
Shenzhou-11 Module 3.7 01:04:37 10° W 01:06:26 28° NW 01:06:26 28° NW
Cosmos 1242 Rocket 3.3 01:12:18 10° NNW 01:15:54 51° W 01:17:16 32° SSW
Lacrosse 5 4.1 01:14:06 10° N 01:16:02 12° NNE 01:16:02 12° NNE
OAO 3 Rocket 3.3 01:17:35 10° WSW 01:22:23 61° S 01:22:23 61° S
CZ-4C R/B 3.9 01:23:05 10° NW 01:30:17 46° WSW 01:38:08 10° S
SL-4 R/B 3.7 01:33:41 10° NW 01:35:28 26° NW 01:35:28 26° NW
Cosmos 2278 Rocket 2.4 01:38:07 10° SSW 01:43:45 68° WNW 01:46:13 34° N
Cosmos 839 Rocket 4.1 01:38:25 10° NNW 01:44:44 84° WSW 01:46:02 62° SSE
CZ-3B R/B 4.4 01:37:53 10° W 01:59:38 58° SSW 02:05:46 43° SE
H-2A R/B 3.8 02:13:20 27° NNW 02:13:20 27° NNW 02:15:40 10° NNW
ADEOS Rocket 4.1 02:23:04 10° N 02:30:33 54° WNW 02:37:35 10° SW
USA 234 4.4 02:50:51 37° WNW 02:50:51 37° WNW 02:55:26 10° WSW
Cosmos 2082 Rocket 4.5 02:45:53 10° NNW 02:47:19 18° NNW 02:47:19 18° NNW
USA 267 4.4 08:58:56 10° NNE 09:03:05 32° N 09:03:05 32° N
COSMOS 2455 3.6 09:10:41 50° E 09:10:41 50° E 09:15:44 10° NE
SL-16 R/B 4.3 09:17:26 17° N 09:17:26 17° N 09:18:48 10° N
Cosmos 2098 Rocket 4.4 09:14:29 70° SE 09:15:02 74° E 09:22:32 10° N
Cosmos 2219 Rocket 3.4 09:28:53 27° SSE 09:31:09 38° ESE 09:36:17 10° NE
USA 234 3.2 09:29:39 10° SE 09:36:10 78° NE 09:38:06 49° NNW
COSMOS 2428 3.6 09:35:06 28° SSE 09:37:35 45° ESE 09:42:57 10° NE
ADEOS 3.7 09:33:45 10° NNE 09:38:34 71° ENE 09:38:34 71° ENE
Cosmos 2322 Rocket 4.1 09:50:30 16° NNW 09:50:30 16° NNW 09:52:06 10° N
Nadezhda 1 Rocket 4.5 09:41:43 10° NNW 09:55:08 - S 09:46:09 45° NNW
Meteor 2-21 Rocket 4.3 09:49:24 68° SW 09:50:06 76° W 09:56:20 10° N
Meteor 2-14 Rocket 4.5 09:58:18 56° WNW 09:58:18 56° WNW 10:04:04 10° N
Aureole 1 Rocket 4.2 09:52:51 10° S 10:00:18 73° ESE 10:06:05 10° NNE
Cosmos 2360 Rocket 3.2 10:01:55 31° NNW 10:01:55 31° NNW 10:05:39 10° N
SL-08 ROCKET BODY 4.5 10:02:53 51° WNW 10:02:53 51° WNW 10:08:06 10° N
H-2A R/B 2.4 10:01:42 10° NNE 10:05:45 86° NE 10:05:45 86° NE
MSX 3.7 10:01:48 10° NNE 10:07:34 89° ESE 10:13:17 10° SSW
Cosmos 1025 Rocket 3.8 10:03:45 10° S 10:07:53 51° E 10:12:01 10° NNE
ATLAS 2AS CENTAUR R/B 3.5 10:01:00 10° SSW 10:08:42 61° ESE 10:16:37 10° NE
NOSS 2-2 (C) 3.3 10:10:27 65° NNE 10:10:27 65° NNE 10:13:49 10° NNE
Cosmos 1544 Rocket 3.4 10:06:53 10° N 10:11:13 88° W 10:15:32 10° S
Cosmos 1536 Rocket 3.7 10:08:44 11° S 10:12:49 71° E 10:17:08 10° NNE
ERBS 4.2 10:13:16 23° SSE 10:14:18 27° SE 10:17:13 10° ENE
Cosmos 304 Rocket 3.6 10:15:19 54° WNW 10:16:01 62° WSW 10:20:43 10° S
Meteor 2-16 Rocket 4.4 10:14:36 34° SW 10:17:04 54° W 10:23:01 10° N
SJ-6F 4.4 10:15:04 10° NNE 10:19:15 81° ESE 10:22:59 13° S
Meteor 1-22 Rocket 3.9 10:16:15 10° N 10:21:39 82° W 10:26:54 10° S
Meteor 1-21 4.3 10:18:14 10° S 10:23:47 78° E 10:29:23 10° NNE
IDEFIX/ARIANE 42P 2.9 10:19:41 10° N 10:24:34 40° WNW 10:24:54 39° W
Cosmos 1844 Rocket 2.6 10:21:58 10° NNW 10:27:27 59° WSW 10:32:53 10° S
BREEZE-M DEB (TANK) 2.2 10:28:15 34° WNW 10:30:06 89° NNE 10:32:39 10° ESE
Cosmos 2333 Rocket 2.1 10:27:24 24° SW 10:30:45 63° WNW 10:36:25 10° NNE
Cosmos 1766 3.9 10:33:03 37° SW 10:33:03 37° SW 10:35:48 10° SSW
BREEZE-M DEB (TANK) 4.5 10:38:14 12° N 10:38:14 12° N 10:38:47 10° N
Cosmos 2278 Rocket 3.6 10:34:32 10° N 10:39:52 40° ENE 10:45:09 10° SE
GPS 2-05 Rocket1 2.7 10:40:19 45° S 10:40:19 45° S 10:42:57 10° ESE
Cosmos 1378 4.1 10:43:32 29° NW 10:43:32 29° NW 10:46:11 10° NNW
Cosmos 1844 3.8 10:37:10 10° NNW 10:42:49 56° WSW 10:48:25 10° S
NOSS 3-2 (A) 4.4 10:37:18 10° NNW 10:45:02 71° NE 10:53:30 10° SE
Cosmos 1805 4.2 10:47:19 27° WSW 10:47:19 27° WSW 10:49:49 10° SSW
NOSS 2-2 (E) 4.2 10:46:28 27° WNW 10:46:48 27° NW 10:50:16 10° NNE
GENESIS II 4.3 10:45:26 25° SW 10:47:35 60° WNW 10:51:38 10° NNE
Meteor 1-31 Rocket 2.8 10:47:26 10° N 10:51:10 53° WNW 10:54:51 10° SSW
BREEZE-M DEB (TANK) 4.4 10:50:56 10° NNW 10:52:30 15° NNE 10:54:01 10° ENE
Fregat R/B Cluster 11 3.8 10:51:35 26° WSW 10:52:58 58° NW 10:58:56 10° NNE
CZ-2C R/B 2.7 10:50:20 10° N 10:55:20 49° WNW 11:00:17 10° SW
PAYLOAD A 4.4 10:51:43 10° N 10:56:05 36° WNW 11:00:36 10° SW
COSMOS 2455 3.9 10:53:52 20° W 10:56:07 25° NW 11:01:01 10° N
Cosmos 1140 Rocket 4.4 10:51:21 10° S 10:56:23 53° ESE 11:01:25 10° NNE
Meteor 1-4 Rocket 3.7 10:54:13 10° SSE 10:57:37 44° E 11:00:59 10° NNE
Cosmos 1992 Rocket 4.2 10:53:06 10° NNW 10:58:06 48° WSW 11:03:05 10° S
Cosmos 1470 2.7 10:57:12 10° N 11:01:08 87° W 11:05:01 10° S
Cosmos 2184 Rocket 3.9 10:55:28 10° SSW 11:01:36 68° W 11:07:49 10° N
Cosmos 1842 4.3 11:00:44 19° WSW 11:02:18 24° WNW 11:05:35 10° NNW
Cosmos 1707 2.6 11:03:52 10° SSW 11:07:45 75° W 11:11:41 10° N
COSMO-SKYMED 1 2.9 11:03:49 10° SSE 11:08:08 70° ENE 11:12:27 10° N
CZ-4B R/B 3.5 11:04:58 10° N 11:08:42 35° WNW 11:12:16 10° SW
Cosmos 1484 Rocket 2.6 11:05:44 10° N 11:09:29 81° WNW 11:13:18 10° SSW
Cosmos 614 Rocket 3.9 11:04:37 10° SSW 11:09:50 76° WNW 11:15:05 10° NNE
CZ-4B DEB 4.3 11:07:35 10° NNE 11:13:05 87° ESE 11:18:33 10° SSW
Cosmos 1733 4.2 11:10:40 10° NW 11:13:50 24° W 11:17:00 10° SW
Cosmos 2219 Rocket 3.1 11:10:43 11° WSW 11:15:09 27° WNW 11:19:52 10° N
NOSS 3 (A) 4.3 11:14:50 10° SW 11:17:27 58° NW 11:20:13 10° NNE
Cosmos 2237 Rocket 2.2 11:12:02 10° SSW 11:17:40 68° WNW 11:23:21 10° NNE
Nadezhda 3 Rocket 4.2 11:12:38 10° N 11:19:03 80° E 11:25:23 10° S
NOSS 3-4 (A) 3.4 11:13:05 10° SW 11:19:03 72° NW 11:25:19 10° NNE
NOSS 3-4 (C) 3.4 11:13:10 10° SW 11:19:08 73° WNW 11:25:25 10° NNE
USA 234 4.3 11:14:19 10° S 11:19:31 25° WSW 11:24:46 10° WNW
Okean O Rocket 2.0 11:16:20 10° NNE 11:20:45 71° ESE 11:25:06 10° S
Meteor PRIRODA 4.3 11:17:46 10° N 11:21:11 34° WNW 11:24:35 10° SW
COSMOS 2428 3.8 11:17:27 10° WSW 11:22:01 24° WNW 11:26:35 10° N
Milstar 3 Cent rocket 4.2 11:20:30 10° SSW 11:23:35 17° SSE 11:26:35 10° ESE
Cosmos 676 Rocket 4.3 11:19:31 10° S 11:24:48 77° ESE 11:30:05 10° NNE
Helios 1A Rocket 2.9 11:21:56 10° N 11:26:06 81° WNW 11:30:14 10° SSW
USA 116 4.1 11:22:26 10° SSE 11:26:43 73° ENE 11:30:29 10° N
Cosmos 1023 Rocket 4.5 11:27:32 10° SSW 11:32:42 67° WNW 11:37:51 10° NNE
Cosmos 1726 Rocket 3.6 11:29:07 10° N 11:33:27 84° E 11:37:45 10° S
Cosmos 1980 4.0 11:28:19 10° SW 11:33:43 46° WNW 11:39:09 10° N
BREEZE-M DEB (TANK) 3.3 11:25:54 10° SW 11:35:19 66° SE 11:38:10 10° ENE
Cosmos 1190 Rocket 4.3 11:30:41 10° SW 11:35:48 48° WNW 11:40:57 10° N
In-Cosmos 22 4.1 11:32:41 10° S 11:37:58 86° W 11:43:22 10° N
Cosmos 389 Rocket 3.3 11:35:25 10° SW 11:38:23 27° WNW 11:41:22 10° NNW
Cosmos 2058 Rocket 3.7 11:35:33 10° N 11:39:55 63° E 11:44:17 10° SSE
CZ-4B R/B 3.1 11:34:43 10° NNE 11:40:03 82° WNW 11:45:19 10° SSW
Cosmos 407 Rocket 4.0 11:36:52 10° SW 11:41:37 37° WNW 11:46:22 10° N
ALOS 2.2 11:37:11 10° N 11:41:51 70° WNW 11:46:28 10° SSW
